147  
ASUS44 KMEG 151210  
RWRMEG  
MEMPHIS CWA HOURLY WEATHER ROUNDUP  
NATIONAL WEATHER SERVICE MEMPHIS TN  
700 AM CDT MON AUG 15 2022  
   
..WEST TENNESSEE
 
 
 
CITY SKY/WX TMP DP RH WIND PRES REMARKS
 
MEMPHIS INTL MOCLDY 80 72 76 W6 29.92R  
6HR MIN TEMP: 79; 6HR MAX TEMP: 81;  
 
JACKSON PTCLDY 70 69 97 S5 29.92S  
6HR MIN TEMP: 69; 6HR MAX TEMP: 72;  
 
SOMERVILLE CLEAR 75 72 88 CALM 29.91R  
BOLIVAR CLEAR 72 70 94 CALM 29.91R  
LEXINGTON PTCLDY 68 68 100 CALM 29.90S FOG  
SELMER PTCLDY 72 70 94 SW5 29.91S  
SAVANNAH PTCLDY 72 72 100 S5 29.90S  
DYERSBURG PTCLDY 72 32 23 CALM 29.93R  
6HR MIN TEMP: 71; 6HR MAX TEMP: 74;  
 
UNION CITY PTCLDY 72 72 100 CALM 29.91R  
PARIS MOCLDY 68 68 100 N3 29.92R  
HUNTINGDON CLEAR 70 68 94 CALM 29.91R  
 
   
..EASTERN ARKANSAS
 
 
 
CITY SKY/WX TMP DP RH WIND PRES REMARKS
 
JONESBORO PTCLDY 75 71 87 NE7 29.94R  
6HR MIN TEMP: 73; 6HR MAX TEMP: 78;  
 
WEST MEMPHIS PTCLDY 77 72 84 CALM 29.91R  
6HR MIN TEMP: 74; 6HR MAX TEMP: 78;  
 
BATESVILLE CLEAR 70 67 90 CALM 29.96R  
6HR MIN TEMP: 69; 6HR MAX TEMP: 77;  
 
NEWPORT PTCLDY 72 71 97 N7 29.94R  
6HR MIN TEMP: 71; 6HR MAX TEMP: 77;  
 
WALNUT RIDGE PTCLDY 72 72 100 N5 29.94R  
6HR MIN TEMP: 72; 6HR MAX TEMP: 77;  
 
BLYTHEVILLE PTCLDY 73 71 93 N3 29.92R  
6HR MIN TEMP: 71; 6HR MAX TEMP: 76;  
 
SEARCY CLEAR 72 69 90 CALM 29.95R  
6HR MIN TEMP: 69; 6HR MAX TEMP: 73;  
 
STUTTGART PTCLDY 73 72 96 SW5 29.94R  
6HR MIN TEMP: 73; 6HR MAX TEMP: 81;  
 
PINE BLUFF CLEAR 74 71 91 CALM 29.94R  
6HR MIN TEMP: 73; 6HR MAX TEMP: 79;  
 
MONTICELLO CLEAR 78 74 87 W6 29.94R  
6HR MIN TEMP: 77; 6HR MAX TEMP: 81;  
 
   
..NORTH MISSISSIPPI
 
 
 
CITY SKY/WX TMP DP RH WIND PRES REMARKS
 
TUPELO PTCLDY 77 71 82 CALM 29.93R  
6HR MIN TEMP: 75; 6HR MAX TEMP: 79;  
 
OXFORD PTCLDY 75 73 94 CALM 29.95R  
BATESVILLE PTCLDY 75 73 94 CALM 29.93R  
OLIVE BRANCH CLEAR 77 73 88 SW9 29.92R  
TUNICA MOCLDY 75 74 96 S5 29.93R  
CLARKSDALE CLEAR 77 77 100 CALM 29.93R  
CORINTH CLEAR 72 72 100 CALM 29.92S  
IUKA FAIR 70 69 96 CALM 29.95R  
GREENWOOD PTCLDY 76 73 91 SW3 29.94R  
6HR MIN TEMP: 75; 6HR MAX TEMP: 78;  
 
COLUMBUS PTCLDY 74 73 95 CALM 29.91R  
6HR MIN TEMP: 73; 6HR MAX TEMP: 77;  
 
STARKVILLE PTCLDY N/A N/A N/A CALM 29.93R  
GOLDEN TRIANGL PTCLDY 74 73 97 SW3 29.95R  
6HR MIN TEMP: 74; 6HR MAX TEMP: 77;  
 
   
..SOUTHEAST MISSOURI
 
 
 
CITY SKY/WX TMP DP RH WIND PRES REMARKS
 
KENNETT MOCLDY 73 72 94 N7 29.92R  
WEST PLAINS PTCLDY 70 67 90 NE6 30.01R  
6HR MIN TEMP: 70; 6HR MAX TEMP: 75;  
 
POPLAR BLUFF PTCLDY 70 68 93 MISG 29.95R  
6HR MIN TEMP: 69; 6HR MAX TEMP: 77;  
 
CAPE GIRARDEAU CLOUDY 72 70 93 NE6 29.95R  
6HR MIN TEMP: 66; 6HR MAX TEMP: 73;  
 
   
..NORTHWEST ALABAMA
 
 
 
CITY SKY/WX TMP DP RH WIND PRES REMARKS
 
MUSCLE SHOALS MOCLDY 72 70 93 CALM 29.92S  
6HR MIN TEMP: 71; 6HR MAX TEMP: 73;  
 
   
..MIDDLE TENNESSEE
 
 
 
CITY SKY/WX TMP DP RH WIND PRES REMARKS
 
NASHVILLE MOCLDY 75 66 73 NW5 29.92R  
6HR MIN TEMP: 73; 6HR MAX TEMP: 77;  
 
CLARKSVILLE MOCLDY 72 68 87 N6 29.92R  
6HR MIN TEMP: 70; 6HR MAX TEMP: 74;  
 
DICKSON PTCLDY 72 68 88 CALM 29.92S  
LAWRENCEBURG CLEAR 68 68 100 CALM 29.92F  
LEWISBURG CLOUDY 68 68 100 CALM 29.92S  
 
   
..WESTERN KENTUCKY
 
 
 
CITY SKY/WX TMP DP RH WIND PRES REMARKS
 
PADUCAH MOCLDY 71 68 90 N3 29.94R FOG  
6HR MIN TEMP: 68; 6HR MAX TEMP: 74;  
 
FORT CAMPBELL PTCLDY 70 70 99 N6 29.91R  
6HR MIN TEMP: 69; 6HR MAX TEMP: 73;  
 
   
..CENTRAL ARKANSAS
 
 
 
CITY SKY/WX TMP DP RH WIND PRES REMARKS
 
LITTLE ROCK PTCLDY 75 69 81 W3 29.94R  
6HR MIN TEMP: 75; 6HR MAX TEMP: 80;  
 
SKY/WX REPORTED AS FAIR MEANS FEW OR NO CLOUDS BELOW  
12 THOUSAND FEET.  
 
 
 
CLICK HERE TO GO TO PREVIOUS BULLETINS.

The Nexlab TN Page
The Nexlab MS Page
The Nexlab AR Page Main Text Page